Regional Weather Roundup
Issued by NWS

Home | Current Version | Previous Version | Graphics & Text | Print | Product List | Glossary On
Versions: 1 2 3 4 5 6 7 8 9 10 11 12 13 14 15 16 17 18 19 20 21 22 23 24 25 26 27 28
000
ASUS45 KGTF 030410
RWRMT
MONTANA HOURLY WEATHER ROUNDUP
NATIONAL WEATHER SERVICE GREAT FALLS MT
1000 PM MDT SAT MAY 02 2015

NOTE: "FAIR" INDICATES FEW OR NO CLOUDS BELOW 12000 FEET WITH NO
SIGNIFICANT WEATHER AND/OR OBSTRUCTIONS TO VISIBILITY.

MTZ001>007-043-030500-
WEST OF THE DIVIDE

CITY           SKY/WX    TMP DP  RH WIND       PRES   REMARKS
KALISPELL      CLEAR     49  20  31 CALM      29.88R
MISSOULA       CLEAR     50  20  30 N6        29.89R
BUTTE          CLOUDY    52  13  21 NW8       29.91R
DEER LODGE       N/A     46  16  29 W9        29.94R
EUREKA           N/A     46  18  31 N3        29.93R
LIBBY            N/A     46  27  46 SE6       29.92R
$$

MTZ008-052>055-030500-
SOUTHWEST MONTANA

CITY           SKY/WX    TMP DP  RH WIND       PRES   REMARKS
BOZEMAN        CLOUDY    53  29  39 CALM      29.87R
DILLON         MOCLDY    54  26  34 N7        29.87R
$$

MTZ009-010-012-014-046-048-049-054-030500-
EAST SLOPES AND CENTRAL MONTANA

CITY           SKY/WX    TMP DP  RH WIND       PRES   REMARKS
CUT BANK       CLOUDY    43  29  57 N6        29.98R
GREAT FALLS    CLEAR     46  31  55 NE15      29.94R
MALMSTROM AFB  CLEAR     47  31  54 N15       29.94R
HELENA         MOCLDY    58  12  16 W10       29.85R
$$

MTZ011-013-016-021-045-047-050-051-030500-
NORTH CENTRAL MONTANA

CITY           SKY/WX    TMP DP  RH WIND       PRES   REMARKS
HAVRE          CLOUDY    51  28  41 N9        29.94R
LEWISTOWN      CLOUDY    50  36  58 N7        29.91R
CHINOOK          N/A     50  28  43 NW3       29.94R
FORT BENTON      N/A     50  27  40 N13       29.96R
$$

MTZ017>020-022>042-056>058-061-062-030500-
EASTERN PLAINS

CITY           SKY/WX    TMP DP  RH WIND       PRES   REMARKS
BAKER          CLOUDY    63  31  30 N5        29.79R
BILLINGS       CLOUDY    62  32  32 NE12      29.83R
GLASGOW        PTCLDY    50  34  54 N14       29.87R
JORDAN           N/A     54  35  48 N15       29.85R
LIVINGSTON     MOCLDY    61  23  23 CALM      29.85R
MILES CITY     CLOUDY    65  35  33 N18       29.77R
SIDNEY         CLOUDY    57  34  41 N16       29.81R
WOLF POINT     PTCLDY    53  34  48 NW13      29.84R
BIG TIMBER       N/A     57  25  28 SW3       29.87R
FORSYTH          N/A     64  36  34 N12       29.79R
PLENTYWOOD       N/A     48  34  57 N6        29.83R
POPLAR           N/A     50  36  57 N3        29.85R
$$

REGIONAL REPORTS...DAKOTAS

CITY           SKY/WX    TMP DP  RH WIND       PRES   REMARKS
WILLISTON      MOCLDY    55  35  47 N15       29.80R
MINOT          CLEAR     57  35  43 NW13      29.71R
DICKINSON      PTCLDY    58  29  33 NW8       29.72R
BEACH          MOCLDY    57  36  44 N14       29.81R
CROSBY         FAIR      45  32  61 NW9       29.81R
WATFORD CITY   FAIR      57  36  44 N18       29.76R
BISMARCK       PTCLDY    64  34  32 N9        29.68R
GRAND FORKS    PTCLDY    56  45  66 SW3       29.59R
FARGO          PTCLDY    66  49  54 SE17      29.60R
BUFFALO SD       N/A     59  29  31 NE13      29.69R
RAPID CITY     CLEAR     54  30  40 N8        29.75R
$$

REGIONAL REPORTS...WYOMING/IDAHO/WASHINGTON

CITY           SKY/WX    TMP DP  RH WIND       PRES   REMARKS
GILLETTE       CLEAR     44  33  65 CALM      29.80R
SHERIDAN       MOCLDY    53  39  59 NE3       29.81R
BUFFALO WY     MOCLDY    54  29  38 W12       29.86R
CODY           CLOUDY    61  28  29 NW10      29.86R
YELLOWSTONE LA   N/A     41  28  60 CALM      29.98R
IDAHO FALLS    PTCLDY    65  26  23 SW15      29.82R
SALMON         PTCLDY    59  28  31 N14       29.84R
BOISE          PTCLDY    67  28  23 N8        29.78R
SPOKANE        CLEAR     54  27  35 NW3       29.91R
$$

REGIONAL REPORTS...ALBERTA

CITY           SKY/WX    TMP DP  RH WIND       PRES   REMARKS
EDMONTON       PTCLDY    36  34  93 W5        29.96R
CALGARY        MOCLDY    39  19  45 NE2       29.97R
LETHBRIDGE     MOCLDY    37  30  75 SW7       29.98R
MEDICINE HAT   PTCLDY    45  21  39 NW12      29.95R
$$

REGIONAL REPORTS...SASKATCHEWAN

CITY           SKY/WX    TMP DP  RH WIND       PRES   REMARKS
SWIFT CURRENT  CLEAR     41  27  56 NW7       29.87R
REGINA         PTCLDY    39  34  81 NW6       29.81R
SASKATOON      MOCLDY    43  32  65 NW8       29.82R
$$



USA.gov is the U.S. government's official web portal to all federal, state and local government web resources and services.